sat.trackr.live / text

‹ back to catalog

SHIJIAN-21 (SJ-21)

NORAD 49330 · 2021-094A

PAYLOAD ACTIVE UNKNOWN

§ Identity

Operator
Country
PRC
Launch date
2021-10-24
Launch site
XICLF
Launch vehicle
Mass (kg)
RCS (m²)

Purposes: comms

External: N2YO · Heavens-Above · Gunter

§ Orbital elements

Epoch: 2026-05-24T21:21:16.247232Z

Period
1,436.20 min
Inclination
5.0604°
Eccentricity
0.0048158
Mean motion
1.00264306 rev/d
Perigee alt
35,585.6 km
Apogee alt
35,991.8 km
Semi-major
42,166.8 km
B*
0.0000e+0
RAAN
61.3198°
Arg perigee
168.8087°
Mean anomaly
100.4094°
Rev number
512

§ Raw data

SHIJIAN-21 (SJ-21)1 49330U 21094A   26144.88977138 -.00000351  00000+0  00000+0 0  99912 49330   5.0604  61.3198 0048158 168.8087 100.4094  1.00264306  5126

JSON: /api/v1/satellites/49330 · /tle

For live sub-satellite position, see the globe view (requires WebGL).

§ Visibility from observer

Set your observer location to see the next 7 days of passes ≥ 10°. The values pass through the URL so the page stays shareable.

No JS? Fill the form by hand. The geolocation button needs JavaScript.